Flag for Germany Weather past 2 weeks in Alsdorf, North Rhine-Westphalia, Germany

Now
54 °F

Passing clouds.


Feels Like: 53 °F
Forecast: 49 / 59 °F
Wind: 3 mph from West

Location: Maastricht Airport Zuid Limburg

Current Time: Oct 25, 2014 at 8:23:09 PM

Latest Report: Oct 25, 2014 at 7:55 PM


Visibility: N/A

Pressure: 30.15 "Hg

Humidity: 88%

Dew point: 50 °F

Location of AlsdorfLocation

Historic Weather in Alsdorf — Graph

°F

Alsdorf temperature yesterday

Maximum temperature yesterday: 55 °F (at 1:25 PM)
Minimum temperature yesterday: 48 °F (at 5:55 AM)
Average temperature yesterday: 52 °F

Past Weeks' High & Low Weather Summary

 TemperatureHumidityPressure
High73 °F (Oct 18, 2:55 PM)100% (Oct 11, 2:55 AM)30.24 "Hg (Oct 11, 2:55 AM)
Low41 °F (Oct 22, 2:55 AM)59% (Oct 14, 12:55 PM)29.53 "Hg (Oct 21, 3:25 PM)
Average56 °F84%29.92 "Hg
* Reported Oct 10 6:25 PM — Oct 25 6:55 PM, Alsdorf, Weather by CustomWeather, © 2014

Note: Actual official high and low records may vary slightly from our data, if they occured in-between our weather recording intervals... More about our weather records

Advertising

Alsdorf weather history for previous 24 hours

 ConditionsComfort  
Time TempWeatherWind HumidityBarometerVisibility
6:55 PM
Oct 25
55 °FDrizzle. Low clouds.6 mph94%30.15 "Hg4 mi
6:25 PM55 °FDrizzle. Partly sunny.8 mph100%30.12 "Hg2 mi
5:55 PM55 °FFog.7 mph100%30.12 "Hg2 mi
5:25 PM55 °FFog.8 mph100%30.12 "Hg3 mi
4:55 PM55 °FFog.7 mph100%30.12 "Hg2 mi
4:25 PM55 °FDrizzle. Mostly cloudy.8 mph100%30.12 "Hg1 mi
3:55 PM55 °FDrizzle. Mostly cloudy.7 mph100%30.09 "Hg1 mi
3:25 PM57 °FFog.8 mph88%30.09 "Hg3 mi
2:55 PM57 °FMostly cloudy.9 mph88%30.09 "Hg6 mi
2:25 PM55 °FLight rain. More clouds than sun.8 mph94%30.09 "Hg6 mi
1:55 PM55 °FLow clouds.9 mph94%30.09 "HgN/A
1:25 PM55 °FLow clouds.9 mph94%30.09 "Hg6 mi
12:55 PM55 °FMore clouds than sun.8 mph94%30.09 "Hg5 mi
12:25 PM55 °FMostly cloudy.8 mph94%30.09 "Hg4 mi
11:55 AM54 °FMostly cloudy.9 mph100%30.09 "Hg4 mi
11:25 AM54 °FFog.9 mph100%30.09 "Hg2 mi
10:55 AM54 °FFog.9 mph94%30.09 "Hg1 mi
10:25 AM54 °FFog.10 mph94%30.07 "Hg2 mi
9:55 AM52 °FFog.10 mph100%30.07 "Hg3 mi
9:25 AM52 °FFog.9 mph100%30.07 "Hg3 mi
8:55 AM52 °FFog.8 mph100%30.07 "Hg2 mi
8:25 AM52 °FFog.9 mph100%30.07 "Hg1 mi
7:55 AM52 °FFog.10 mph100%30.04 "Hg2 mi
7:25 AM52 °FFog.10 mph100%30.04 "Hg2 mi
6:55 AM52 °FFog.10 mph100%30.04 "Hg2 mi
6:25 AM52 °FFog.9 mph100%30.04 "Hg2 mi
5:55 AM52 °FFog.9 mph100%30.04 "Hg2 mi
5:25 AM52 °FDrizzle. Mostly cloudy.12 mph94%30.04 "Hg2 mi
4:55 AM52 °FFog.12 mph94%30.04 "Hg3 mi
4:25 AM50 °FFog.12 mph100%30.04 "Hg2 mi
3:55 AM50 °FFog.12 mph100%30.04 "Hg2 mi
3:25 AM50 °FPartly cloudy.12 mph100%30.04 "Hg1 mi
2:55 AM50 °FPartly cloudy.12 mph100%30.04 "Hg2 mi
2:25 AM50 °FFog.14 mph100%30.04 "Hg2 mi
1:55 AM50 °FPartly cloudy.13 mph100%30.04 "Hg4 mi
1:25 AM50 °FSprinkles. Partly cloudy.13 mph100%30.04 "Hg5 mi
12:55 AM50 °FDrizzle. Mostly cloudy.15 mph100%30.04 "Hg2 mi
12:25 AM52 °FMostly cloudy.15 mph88%30.04 "Hg4 mi
11:55 PM
Oct 24
52 °FMostly cloudy.13 mph88%30.04 "HgN/A
11:25 PM52 °FDrizzle. Mostly cloudy.14 mph88%30.04 "Hg3 mi
10:55 PM52 °FOvercast.13 mph88%30.04 "HgN/A
10:25 PM52 °FMostly cloudy.12 mph82%30.07 "HgN/A
9:55 PM52 °FMostly cloudy.10 mph82%30.04 "HgN/A
9:25 PM52 °FPassing clouds.9 mph82%30.04 "HgN/A
8:55 PM52 °FClear.10 mph88%30.04 "HgN/A
8:25 PM52 °FClear.12 mph82%30.04 "HgN/A
Weather by CustomWeather, © 2014

See weather overviewHow to use our weather pages